Location: Waco, TX
(31.5480°N, 97.1670°W)
Time: 21:42:33
(UTC-06:00)

ISS - Pass Details

Date: 16 February 2019
Orbit: 403 x 411 km, 51.6° (Epoch: 22 February)

Event Time Altitude Azimuth Distance (km) Brightness Sun altitude
Rises 16:31:45 0° 316° (NW) 2,326 0.2 19.9°
Reaches altitude 10° 16:33:50 10° 318° (NW) 1,465 -0.8 19.5°
Maximum altitude 16:37:07 76° 45° (NE) 423 -3.6 18.9°
Drops below altitude 10° 16:40:23 10° 131° (SE) 1,462 -1.2 18.3°
Sets 16:42:28 0° 133° (SE) 2,320 -0.2 17.9°
